����������;��������(kVARh)
2016-12-12 00:00;2,5
2016-12-12 00:15;0,4
2016-12-12 00:30;0,85
2016-12-12 00:45;0
2016-12-12 01:00;0,35
2016-12-12 01:15;0
2016-12-12 01:30;0,15
2016-12-12 01:45;0
2016-12-12 02:00;0,05
2016-12-12 02:15;0,15
2016-12-12 02:30;0,6
2016-12-12 02:45;0,25
2016-12-12 03:00;0,75
2016-12-12 03:15;0,45
2016-12-12 03:30;0,7
2016-12-12 03:45;0,7
2016-12-12 04:00;0,55
2016-12-12 04:15;1,1
2016-12-12 04:30;0,5
2016-12-12 04:45;1,15
2016-12-12 05:00;0,3
2016-12-12 05:15;0,6
2016-12-12 05:30;0,6
2016-12-12 05:45;0,5
2016-12-12 06:00;0,6
2016-12-12 06:15;0,6
2016-12-12 06:30;0,3
2016-12-12 06:45;0,1
2016-12-12 07:00;0
2016-12-12 07:15;0,05
2016-12-12 07:30;4,45
2016-12-12 07:45;29,75
2016-12-12 08:00;26,55
2016-12-12 08:15;21,3
2016-12-12 08:30;28,05
2016-12-12 08:45;30,55
2016-12-12 09:00;38,05
2016-12-12 09:15;39,65
2016-12-12 09:30;40,9
2016-12-12 09:45;50,25
2016-12-12 10:00;41,85
2016-12-12 10:15;44,85
2016-12-12 10:30;41
2016-12-12 10:45;55,6
2016-12-12 11:00;57,35
2016-12-12 11:15;60,4
2016-12-12 11:30;63,85
2016-12-12 11:45;58,05
2016-12-12 12:00;60,9
2016-12-12 12:15;50,35
2016-12-12 12:30;54,25
2016-12-12 12:45;58,5
2016-12-12 13:00;68,55
2016-12-12 13:15;62,7
2016-12-12 13:30;65,8
2016-12-12 13:45;60,35
2016-12-12 14:00;64,15
2016-12-12 14:15;62,55
2016-12-12 14:30;66,5
2016-12-12 14:45;54,85
2016-12-12 15:00;49,55
2016-12-12 15:15;42,1
2016-12-12 15:30;51,05
2016-12-12 15:45;45,55
2016-12-12 16:00;41,4
2016-12-12 16:15;37,05
2016-12-12 16:30;34,65
2016-12-12 16:45;34
2016-12-12 17:00;34
2016-12-12 17:15;32,85
2016-12-12 17:30;29,1
2016-12-12 17:45;27,55
2016-12-12 18:00;22,7
2016-12-12 18:15;19,4
2016-12-12 18:30;26,45
2016-12-12 18:45;20,5
2016-12-12 19:00;22,3
2016-12-12 19:15;24,45
2016-12-12 19:30;22,35
2016-12-12 19:45;21,9
2016-12-12 20:00;24,05
2016-12-12 20:15;20,7
2016-12-12 20:30;22,9
2016-12-12 20:45;20,9
2016-12-12 21:00;18,3
2016-12-12 21:15;20,2
2016-12-12 21:30;20,85
2016-12-12 21:45;23,35
2016-12-12 22:00;20,05
2016-12-12 22:15;19,15
2016-12-12 22:30;15,15
2016-12-12 22:45;11,25
2016-12-12 23:00;6,35
2016-12-12 23:15;6,05
2016-12-12 23:30;7
2016-12-12 23:45;8,05
2016-12-13 00:00;10,7
2016-12-13 00:15;11,05
2016-12-13 00:30;12,05
2016-12-13 00:45;11,75
2016-12-13 01:00;8,45
2016-12-13 01:15;3,4
2016-12-13 01:30;3,15
2016-12-13 01:45;3,2
2016-12-13 02:00;0,4
2016-12-13 02:15;0,8
2016-12-13 02:30;0,3
2016-12-13 02:45;0
2016-12-13 03:00;0,1
2016-12-13 03:15;0
2016-12-13 03:30;0
2016-12-13 03:45;0
2016-12-13 04:00;0,45
2016-12-13 04:15;0,2
2016-12-13 04:30;0,15
2016-12-13 04:45;0,5
2016-12-13 05:00;0,4
2016-12-13 05:15;2,45
2016-12-13 05:30;2,05
2016-12-13 05:45;3,5
2016-12-13 06:00;2,55
2016-12-13 06:15;3,05
2016-12-13 06:30;3
2016-12-13 06:45;5,05
2016-12-13 07:00;6,6
2016-12-13 07:15;5,05
2016-12-13 07:30;15,6
2016-12-13 07:45;18,5
2016-12-13 08:00;17,8
2016-12-13 08:15;31,3
2016-12-13 08:30;28
2016-12-13 08:45;31,2
2016-12-13 09:00;39,8
2016-12-13 09:15;42,25
2016-12-13 09:30;44,3
2016-12-13 09:45;51,15
2016-12-13 10:00;44
2016-12-13 10:15;48,1
2016-12-13 10:30;66,1
2016-12-13 10:45;70,1
2016-12-13 11:00;66,8
2016-12-13 11:15;68,3
2016-12-13 11:30;68,25
2016-12-13 11:45;66,15
2016-12-13 12:00;67,1
2016-12-13 12:15;67,75
2016-12-13 12:30;74,85
2016-12-13 12:45;72,3
2016-12-13 13:00;70,65
2016-12-13 13:15;72
2016-12-13 13:30;76,65
2016-12-13 13:45;67,35
2016-12-13 14:00;77,5
2016-12-13 14:15;79,95
2016-12-13 14:30;73,45
2016-12-13 14:45;76,15
2016-12-13 15:00;67,1
2016-12-13 15:15;67,1
2016-12-13 15:30;66,3
2016-12-13 15:45;63,7
2016-12-13 16:00;55,85
2016-12-13 16:15;54,2
2016-12-13 16:30;56,8
2016-12-13 16:45;51,4
2016-12-13 17:00;48,5
2016-12-13 17:15;52,7
2016-12-13 17:30;40,95
2016-12-13 17:45;44,75
2016-12-13 18:00;32,05
2016-12-13 18:15;29,95
2016-12-13 18:30;32,85
2016-12-13 18:45;29,4
2016-12-13 19:00;29,7
2016-12-13 19:15;24,45
2016-12-13 19:30;26,3
2016-12-13 19:45;19,7
2016-12-13 20:00;19,05
2016-12-13 20:15;18,25
2016-12-13 20:30;13,75
2016-12-13 20:45;15,3
2016-12-13 21:00;15,85
2016-12-13 21:15;14,6
2016-12-13 21:30;13,45
2016-12-13 21:45;13,8
2016-12-13 22:00;7,4
2016-12-13 22:15;9,4
2016-12-13 22:30;8,8
2016-12-13 22:45;8,35
2016-12-13 23:00;8,9
2016-12-13 23:15;5,3
2016-12-13 23:30;4,05
2016-12-13 23:45;4,05
2016-12-14 00:00;6,25
2016-12-14 00:15;7,5
2016-12-14 00:30;5,1
2016-12-14 00:45;4,55
2016-12-14 01:00;5,7
2016-12-14 01:15;4,65
2016-12-14 01:30;5,65
2016-12-14 01:45;3,7
2016-12-14 02:00;2,75
2016-12-14 02:15;2,6
2016-12-14 02:30;2,4
2016-12-14 02:45;3,55
2016-12-14 03:00;2,75
2016-12-14 03:15;3,3
2016-12-14 03:30;3,5
2016-12-14 03:45;3,25
2016-12-14 04:00;3,45
2016-12-14 04:15;2,8
2016-12-14 04:30;3,2
2016-12-14 04:45;3,15
2016-12-14 05:00;3
2016-12-14 05:15;13,05
2016-12-14 05:30;15,2
2016-12-14 05:45;16,85
2016-12-14 06:00;15,6
2016-12-14 06:15;15,55
2016-12-14 06:30;19,9
2016-12-14 06:45;17,35
2016-12-14 07:00;15,05
2016-12-14 07:15;18,95
2016-12-14 07:30;21,75
2016-12-14 07:45;29,85
2016-12-14 08:00;30,05
2016-12-14 08:15;32,85
2016-12-14 08:30;35,55
2016-12-14 08:45;40,2
2016-12-14 09:00;42,8
2016-12-14 09:15;54,9
2016-12-14 09:30;71,75
2016-12-14 09:45;61,75
2016-12-14 10:00;68,3
2016-12-14 10:15;72,15
2016-12-14 10:30;72,4
2016-12-14 10:45;73,55
2016-12-14 11:00;76,6
2016-12-14 11:15;76,85
2016-12-14 11:30;75,65
2016-12-14 11:45;77,3
2016-12-14 12:00;77,5
2016-12-14 12:15;86,15
2016-12-14 12:30;84,6
2016-12-14 12:45;86,4
2016-12-14 13:00;88,15
2016-12-14 13:15;79,7
2016-12-14 13:30;78,6
2016-12-14 13:45;79,45
2016-12-14 14:00;80,25
2016-12-14 14:15;69,7
2016-12-14 14:30;75,25
2016-12-14 14:45;79,85
2016-12-14 15:00;75
2016-12-14 15:15;75,7
2016-12-14 15:30;61,5
2016-12-14 15:45;52,45
2016-12-14 16:00;55,3
2016-12-14 16:15;48,85
2016-12-14 16:30;48,65
2016-12-14 16:45;40,3
2016-12-14 17:00;50,65
2016-12-14 17:15;45,35
2016-12-14 17:30;45,3
2016-12-14 17:45;35,6
2016-12-14 18:00;34,8
2016-12-14 18:15;29,2
2016-12-14 18:30;21,85
2016-12-14 18:45;25,15
2016-12-14 19:00;19,55
2016-12-14 19:15;16,45
2016-12-14 19:30;10,6
2016-12-14 19:45;5,75
2016-12-14 20:00;4,35
2016-12-14 20:15;2,9
2016-12-14 20:30;3,75
2016-12-14 20:45;4,35
2016-12-14 21:00;4,55
2016-12-14 21:15;5,05
2016-12-14 21:30;5,25
2016-12-14 21:45;4,7
2016-12-14 22:00;6,1
2016-12-14 22:15;9,9
2016-12-14 22:30;8,6
2016-12-14 22:45;9,2
2016-12-14 23:00;10,25
2016-12-14 23:15;3,5
2016-12-14 23:30;3,3
2016-12-14 23:45;4
2016-12-15 00:00;5,3
2016-12-15 00:15;2
2016-12-15 00:30;2,35
2016-12-15 00:45;3,95
2016-12-15 01:00;4,15
2016-12-15 01:15;4,1
2016-12-15 01:30;5,4
2016-12-15 01:45;4,15
2016-12-15 02:00;2,9
2016-12-15 02:15;1,95
2016-12-15 02:30;2,2
2016-12-15 02:45;2,65
2016-12-15 03:00;2,2
2016-12-15 03:15;3,5
2016-12-15 03:30;4,4
2016-12-15 03:45;3,95
2016-12-15 04:00;5,4
2016-12-15 04:15;3,85
2016-12-15 04:30;4,75
2016-12-15 04:45;4,45
2016-12-15 05:00;5,2
2016-12-15 05:15;8,7
2016-12-15 05:30;13,3
2016-12-15 05:45;14,95
2016-12-15 06:00;25,6
2016-12-15 06:15;24,95
2016-12-15 06:30;31,55
2016-12-15 06:45;30,4
2016-12-15 07:00;27,2
2016-12-15 07:15;30,45
2016-12-15 07:30;27,65
2016-12-15 07:45;29,7
2016-12-15 08:00;28,5
2016-12-15 08:15;28,65
2016-12-15 08:30;30,85
2016-12-15 08:45;46,6
2016-12-15 09:00;36,15
2016-12-15 09:15;43,6
2016-12-15 09:30;45,95
2016-12-15 09:45;41
2016-12-15 10:00;48,5
2016-12-15 10:15;43,05
2016-12-15 10:30;46
2016-12-15 10:45;51,1
2016-12-15 11:00;46,5
2016-12-15 11:15;52,05
2016-12-15 11:30;56,25
2016-12-15 11:45;55,4
2016-12-15 12:00;55
2016-12-15 12:15;50,9
2016-12-15 12:30;59,05
2016-12-15 12:45;55,7
2016-12-15 13:00;58,85
2016-12-15 13:15;56,5
2016-12-15 13:30;54,6
2016-12-15 13:45;55,85
2016-12-15 14:00;47,1
2016-12-15 14:15;51,65
2016-12-15 14:30;48,05
2016-12-15 14:45;48,75
2016-12-15 15:00;47,9
2016-12-15 15:15;51,65
2016-12-15 15:30;45,2
2016-12-15 15:45;47
2016-12-15 16:00;39,1
2016-12-15 16:15;39,9
2016-12-15 16:30;42,15
2016-12-15 16:45;40,05
2016-12-15 17:00;41,1
2016-12-15 17:15;35,4
2016-12-15 17:30;39
2016-12-15 17:45;36,95
2016-12-15 18:00;25,85
2016-12-15 18:15;25,95
2016-12-15 18:30;27,45
2016-12-15 18:45;24
2016-12-15 19:00;22,7
2016-12-15 19:15;13,7
2016-12-15 19:30;12,7
2016-12-15 19:45;14,25
2016-12-15 20:00;8,3
2016-12-15 20:15;7,95
2016-12-15 20:30;8,8
2016-12-15 20:45;8,5
2016-12-15 21:00;8,15
2016-12-15 21:15;14,05
2016-12-15 21:30;14,25
2016-12-15 21:45;12,3
2016-12-15 22:00;16,4
2016-12-15 22:15;14,4
2016-12-15 22:30;16,1
2016-12-15 22:45;9,85
2016-12-15 23:00;7
2016-12-15 23:15;0,6
2016-12-15 23:30;0,55
2016-12-15 23:45;1,3
2016-12-16 00:00;1,8
2016-12-16 00:15;2,65
2016-12-16 00:30;2,95
2016-12-16 00:45;3,8
2016-12-16 01:00;4,2
2016-12-16 01:15;0,75
2016-12-16 01:30;4
2016-12-16 01:45;2,15
2016-12-16 02:00;1
2016-12-16 02:15;1,8
2016-12-16 02:30;2,75
2016-12-16 02:45;2,5
2016-12-16 03:00;3,3
2016-12-16 03:15;3,55
2016-12-16 03:30;3,65
2016-12-16 03:45;3,35
2016-12-16 04:00;2,9
2016-12-16 04:15;3,25
2016-12-16 04:30;2,95
2016-12-16 04:45;2,85
2016-12-16 05:00;4,4
2016-12-16 05:15;4,35
2016-12-16 05:30;11,35
2016-12-16 05:45;13,7
2016-12-16 06:00;24,35
2016-12-16 06:15;27,45
2016-12-16 06:30;24,7
2016-12-16 06:45;20,6
2016-12-16 07:00;16,55
2016-12-16 07:15;16,75
2016-12-16 07:30;13,35
2016-12-16 07:45;21,75
2016-12-16 08:00;12,35
2016-12-16 08:15;21,4
2016-12-16 08:30;27,15
2016-12-16 08:45;30,05
2016-12-16 09:00;34,7
2016-12-16 09:15;38,35
2016-12-16 09:30;37,05
2016-12-16 09:45;50,6
2016-12-16 10:00;44,35
2016-12-16 10:15;37,95
2016-12-16 10:30;47,25
2016-12-16 10:45;52,5
2016-12-16 11:00;54,85
2016-12-16 11:15;53,05
2016-12-16 11:30;56,3
2016-12-16 11:45;62,8
2016-12-16 12:00;55,65
2016-12-16 12:15;61,6
2016-12-16 12:30;63,55
2016-12-16 12:45;54,7
2016-12-16 13:00;61,2
2016-12-16 13:15;61,35
2016-12-16 13:30;66,2
2016-12-16 13:45;62,25
2016-12-16 14:00;62,25
2016-12-16 14:15;54,9
2016-12-16 14:30;55
2016-12-16 14:45;47,9
2016-12-16 15:00;55,2
2016-12-16 15:15;44,55
2016-12-16 15:30;42
2016-12-16 15:45;42,35
2016-12-16 16:00;39,5
2016-12-16 16:15;32,95
2016-12-16 16:30;39,15
2016-12-16 16:45;32,75
2016-12-16 17:00;36,25
2016-12-16 17:15;33,2
2016-12-16 17:30;28,9
2016-12-16 17:45;26,95
2016-12-16 18:00;24,1
2016-12-16 18:15;21,25
2016-12-16 18:30;16,55
2016-12-16 18:45;17,85
2016-12-16 19:00;22,35
2016-12-16 19:15;17,15
2016-12-16 19:30;7,75
2016-12-16 19:45;8,2
2016-12-16 20:00;6,8
2016-12-16 20:15;10,15
2016-12-16 20:30;9,05
2016-12-16 20:45;11,1
2016-12-16 21:00;10,9
2016-12-16 21:15;15,1
2016-12-16 21:30;19,25
2016-12-16 21:45;19,25
2016-12-16 22:00;19,8
2016-12-16 22:15;16,6
2016-12-16 22:30;15,8
2016-12-16 22:45;18,1
2016-12-16 23:00;23,5
2016-12-16 23:15;22,45
2016-12-16 23:30;19,3
2016-12-16 23:45;10,45
2016-12-17 00:00;7,9
2016-12-17 00:15;8,2
2016-12-17 00:30;0,6
2016-12-17 00:45;1
2016-12-17 01:00;1,8
2016-12-17 01:15;0,55
2016-12-17 01:30;0,65
2016-12-17 01:45;0,6
2016-12-17 02:00;0,05
2016-12-17 02:15;0,45
2016-12-17 02:30;0,05
2016-12-17 02:45;0,35
2016-12-17 03:00;0,2
2016-12-17 03:15;0,4
2016-12-17 03:30;0,65
2016-12-17 03:45;0,85
2016-12-17 04:00;0,9
2016-12-17 04:15;1,15
2016-12-17 04:30;0,35
2016-12-17 04:45;1,75
2016-12-17 05:00;1,2
2016-12-17 05:15;2,3
2016-12-17 05:30;4,7
2016-12-17 05:45;4,25
2016-12-17 06:00;4,1
2016-12-17 06:15;3,7
2016-12-17 06:30;3,45
2016-12-17 06:45;3
2016-12-17 07:00;1,85
2016-12-17 07:15;2,65
2016-12-17 07:30;3
2016-12-17 07:45;1,4
2016-12-17 08:00;0
2016-12-17 08:15;0
2016-12-17 08:30;0
2016-12-17 08:45;0
2016-12-17 09:00;0
2016-12-17 09:15;0,15
2016-12-17 09:30;0
2016-12-17 09:45;0
2016-12-17 10:00;0
2016-12-17 10:15;0
2016-12-17 10:30;0
2016-12-17 10:45;0
2016-12-17 11:00;0
2016-12-17 11:15;0
2016-12-17 11:30;0
2016-12-17 11:45;0
2016-12-17 12:00;0,65
2016-12-17 12:15;1,65
2016-12-17 12:30;0,9
2016-12-17 12:45;0
2016-12-17 13:00;0
2016-12-17 13:15;0
2016-12-17 13:30;0
2016-12-17 13:45;0
2016-12-17 14:00;0
2016-12-17 14:15;0
2016-12-17 14:30;0
2016-12-17 14:45;0
2016-12-17 15:00;0
2016-12-17 15:15;0
2016-12-17 15:30;0
2016-12-17 15:45;0
2016-12-17 16:00;4,8
2016-12-17 16:15;15,3
2016-12-17 16:30;8,5
2016-12-17 16:45;14,9
2016-12-17 17:00;17,3
2016-12-17 17:15;13,8
2016-12-17 17:30;10,85
2016-12-17 17:45;13,35
2016-12-17 18:00;9,4
2016-12-17 18:15;9,7
2016-12-17 18:30;10,2
2016-12-17 18:45;8,5
2016-12-17 19:00;7,05
2016-12-17 19:15;6,65
2016-12-17 19:30;6,6
2016-12-17 19:45;6,9
2016-12-17 20:00;6,7
2016-12-17 20:15;6
2016-12-17 20:30;4,55
2016-12-17 20:45;5,95
2016-12-17 21:00;8,2
2016-12-17 21:15;6,6
2016-12-17 21:30;4,95
2016-12-17 21:45;6,65
2016-12-17 22:00;7,35
2016-12-17 22:15;10,95
2016-12-17 22:30;4,35
2016-12-17 22:45;0,65
2016-12-17 23:00;1,6
2016-12-17 23:15;0
2016-12-17 23:30;0
2016-12-17 23:45;0,05
2016-12-18 00:00;0,1
2016-12-18 00:15;0,05
2016-12-18 00:30;0
2016-12-18 00:45;0
2016-12-18 01:00;0
2016-12-18 01:15;0
2016-12-18 01:30;0
2016-12-18 01:45;0,05
2016-12-18 02:00;0
2016-12-18 02:15;0
2016-12-18 02:30;0
2016-12-18 02:45;0
2016-12-18 03:00;0,1
2016-12-18 03:15;0,35
2016-12-18 03:30;1,2
2016-12-18 03:45;0,65
2016-12-18 04:00;1,85
2016-12-18 04:15;1,75
2016-12-18 04:30;2,2
2016-12-18 04:45;2,05
2016-12-18 05:00;2,4
2016-12-18 05:15;2,2
2016-12-18 05:30;1,6
2016-12-18 05:45;0
2016-12-18 06:00;0,05
2016-12-18 06:15;0,3
2016-12-18 06:30;0,3
2016-12-18 06:45;0,2
2016-12-18 07:00;0
2016-12-18 07:15;0,05
2016-12-18 07:30;0
2016-12-18 07:45;0
2016-12-18 08:00;0
2016-12-18 08:15;0
2016-12-18 08:30;0
2016-12-18 08:45;0
2016-12-18 09:00;0
2016-12-18 09:15;0,3
2016-12-18 09:30;3,5
2016-12-18 09:45;4,85
2016-12-18 10:00;2,7
2016-12-18 10:15;0,95
2016-12-18 10:30;0,75
2016-12-18 10:45;0,35
2016-12-18 11:00;0,1
2016-12-18 11:15;0
2016-12-18 11:30;0
2016-12-18 11:45;0
2016-12-18 12:00;0
2016-12-18 12:15;0
2016-12-18 12:30;0
2016-12-18 12:45;0
2016-12-18 13:00;0,45
2016-12-18 13:15;0,2
2016-12-18 13:30;0,55
2016-12-18 13:45;0,3
2016-12-18 14:00;1,1
2016-12-18 14:15;2,05
2016-12-18 14:30;2,8
2016-12-18 14:45;1,55
2016-12-18 15:00;0,9
2016-12-18 15:15;0,9
2016-12-18 15:30;0,1
2016-12-18 15:45;0,15
2016-12-18 16:00;0,25
2016-12-18 16:15;0
2016-12-18 16:30;0
2016-12-18 16:45;0
2016-12-18 17:00;0
2016-12-18 17:15;0
2016-12-18 17:30;0
2016-12-18 17:45;0,4
2016-12-18 18:00;0,1
2016-12-18 18:15;1,25
2016-12-18 18:30;2,05
2016-12-18 18:45;6,15
2016-12-18 19:00;6,95
2016-12-18 19:15;4,2
2016-12-18 19:30;4,4
2016-12-18 19:45;3,1
2016-12-18 20:00;1,85
2016-12-18 20:15;2,35
2016-12-18 20:30;3,55
2016-12-18 20:45;4,05
2016-12-18 21:00;0,7
2016-12-18 21:15;0,65
2016-12-18 21:30;0,45
2016-12-18 21:45;0,05
2016-12-18 22:00;0
2016-12-18 22:15;2,4
2016-12-18 22:30;2,15
2016-12-18 22:45;0,9
2016-12-18 23:00;1,2
2016-12-18 23:15;0
2016-12-18 23:30;0
2016-12-18 23:45;0

